Location: Casco Millpond
(44.5581°N, 87.6111°W)
Time: 08:44:52
(UTC+00:00)

ERS-1 - Pass Details

Date: 16 January 2026
Orbit: 738 x 782 km, 98.8° (Epoch: 10 February)

Event Time Altitude Azimuth Distance (km) Brightness Sun altitude
Rises 23:37:14 0° 163° (SSE) 3,162 7.7 -10.5°
Reaches altitude 10° 23:39:29 10° 163° (SSE) 2,246 7.0 -10.9°
Maximum altitude 23:44:26 88° 78° (ENE) 753 4.4 -11.7°
Drops below altitude 10° 23:49:28 10° 346° (NNW) 2,284 6.9 -12.5°
Sets 23:51:47 0° 347° (NNW) 3,220 7.7 -12.9°
